Location: Calvera
(42.3882°N, 0.6137°E)
Time: 13:33:19
(UTC+00:00)

Cosmos 1461 - Pass Details

Date: 28 October 2020
Orbit: 500 x 665 km, 65.0° (Epoch: 24 November)

Event Time Altitude Azimuth Distance (km) Brightness Sun altitude
Exits shadow 05:34:05 14° 272° (W) 1,790 4.8 -10.2°
Maximum altitude 05:36:56 23° 317° (NW) 1,377 4.4 -9.7°
Drops below altitude 10° 05:40:41 10° 10° (N) 2,075 5.8 -9.0°
Sets 05:43:28 0° 25° (NNE) 3,004 6.8 -8.5°
